Location: Unspecified
(31.5036°S, 0.0000°E)
Time: 03:59:54
(UTC+00:00)

CZ-6A DEB - Visible Passes

Search period start: 05 April 2026 00:00
Search period end: 15 April 2026 00:00
Orbit: 791 x 903 km, 88.8° (Epoch: 27 March)

Date Brightness Start Highest point End Pass type
(mag) Time Alt. Az. Time Alt. Az. Time Alt. Az.
5 Apr ? 04:16:48 10° SSE 04:22:12 38° E 04:27:24 10° NNE visible
6 Apr ? 04:04:00 10° SSE 04:09:07 31° E 04:14:03 10° NNE visible
6 Apr ? 05:46:00 10° SSW 05:50:46 27° W 05:55:24 10° NW visible
7 Apr ? 03:51:17 10° SSE 03:56:02 26° E 04:00:38 10° NE visible
7 Apr ? 05:32:45 10° SSW 05:37:50 32° W 05:42:45 10° NW visible
8 Apr ? 03:38:38 10° SE 03:42:56 21° E 03:47:07 10° NE visible
8 Apr ? 05:19:33 10° SSW 05:24:53 39° W 05:30:01 10° NNW visible
9 Apr ? 03:26:07 10° SE 03:29:49 17° E 03:33:26 10° ENE visible
9 Apr ? 05:06:23 10° SSW 05:11:55 47° W 05:17:13 10° NNW visible
9 Apr ? 18:11:45 10° WNW 18:14:13 13° W 18:16:43 10° SW visible
10 Apr ? 03:13:47 10° SE 03:16:41 14° E 03:19:32 10° ENE visible
10 Apr ? 04:53:17 10° S 04:58:56 57° W 05:04:21 10° NNW visible
11 Apr ? 03:01:57 10° ESE 03:03:32 11° ESE 03:05:07 10° E visible
11 Apr ? 04:40:12 10° S 04:45:56 70° W 04:51:26 10° N visible
12 Apr ? 04:27:09 10° S 04:32:55 84° W 04:38:27 10° N visible
13 Apr ? 04:14:09 10° S 04:19:54 80° E 04:25:24 10° N visible
14 Apr ? 04:01:10 10° S 04:06:52 66° E 04:12:18 10° N visible
14 Apr ? 05:45:56 10° SW 05:47:56 12° WSW 05:49:55 10° W visible
